Regional Weather Roundup
Issued by NWS Kansas City/Pleasant Hill, MO

Home | Current Version | Previous Version | Graphics & Text | Print | Product List | Glossary Off
Versions: 1 2 3 4 5 6 7 8 9 10 11 12 13 14 15 16 17 18 19 20 21 22 23 24 25 26 27 28 29 30 31 32 33 34 35 36 37 38 39 40 41 42 43 44 45 46 47 48 49 50

000
ASUS43 KEAX 010610
RWREAX

WEATHER ROUNDUP FOR EASTERN KANSAS AND NORTHWEST MISSOURI
NATIONAL WEATHER SERVICE KANSAS CITY/PLEASANT HILL MO
1200 AM CST SUN FEB 01 2015

KSZ040-057-103>105-MOZ028-029-037-043-010700-
...KANSAS CITY METROPOLITAN AREA...

CITY           SKY/WX    TMP DP  RH WIND       PRES   REMARKS
K.C. INTL      LGT SNOW  33  33 100 SE10      29.85F FOG     WCI  25
6HR MIN TEMP:  33; 6HR MAX TEMP:  35; 6HR PCP:  0.30;

K.C. DOWNTOWN  LGT SNOW  34  32  92 E5        29.86F FOG     WCI  30
6HR MIN TEMP:  34; 6HR MAX TEMP:  37; 6HR PCP:  0.16;

LEES SUMMIT    LGT SNOW  33  32  96 SE9       29.86F FOG     WCI  25
6HR MIN TEMP:  33; 6HR MAX TEMP:  36; 6HR PCP:  0.26;

OLATHE - IXD   LGT RAIN  34  33  96 SE8       29.85F FOG     WCI  27
6HR MIN TEMP:  34; 6HR MAX TEMP:  36; 6HR PCP:  0.27;

OLATHE - OJC   LGT SNOW  33  33 100 SE7       29.84F FOG     WCI  27
6HR MIN TEMP:  33; 6HR MAX TEMP:  36; 6HR PCP:  0.24;

LAWRENCE       LGT RAIN  33  32  96 E7        29.84F FOG     WCI  27

$$

MOZ001>008-011>017-020>025-030>033-038>040-044>046-053-054-010700-
...NORTHERN AND CENTRAL MISSOURI...

CITY           SKY/WX    TMP DP  RH WIND       PRES   REMARKS
ST. JOSEPH     LGT SNOW  32  32 100 SE3       29.86F VSB 3/4
6HR MIN TEMP:  32; 6HR MAX TEMP:  33; 6HR PCP:  0.41;

MOSBY          LGT SNOW  32  32 100 SE6       29.87F WCI  26
WARRENSBURG    RAIN      34  32  93 E7        29.89F WCI  28
WHITEMAN AFB   LGT RAIN  34  32  93 SE6       29.89F WCI  29
6HR MIN TEMP:  34; 6HR MAX TEMP:  38; 6HR PCP:  0.21;

CLINTON        LGT RAIN  37  36  93 E3        29.91F
SEDALIA        LGT RAIN  35  33  92 E6        29.92F WCI  30
6HR MIN TEMP:  35; 6HR MAX TEMP:  38; 6HR PCP:  0.19;

WARSAW         NOT AVBL
MARSHALL       LGT SNOW  36  34  93 E8        29.94F WCI  29
CHILLICOTHE      N/A     33  32  96 SE7       29.92F WCI  27
6HR MIN TEMP:  33; 6HR MAX TEMP:  36; 6HR PCP:  0.48;

MOBERLY        MIX PCPN  36  32  87 SE8       29.97F WCI  29
KIRKSVILLE     LGT SNOW  33  33 100 SE12      29.93F VSB 3/4 WCI  24
6HR MIN TEMP:  33; 6HR MAX TEMP:  33; 6HR PCP:  0.64;


$$

MOZ041-047>049-056>058-063>065-088>090-097-010700-
...EASTERN AND SOUTHERN MISSOURI...

CITY           SKY/WX    TMP DP  RH WIND       PRES   REMARKS
ST. LOUIS INTL CLOUDY    41  25  53 SE22      30.02F WCI  31
6HR MIN TEMP:  40; 6HR MAX TEMP:  44; 6HR PCP: TRACE;

SPIRIT OF STL  LGT RAIN  40  25  55 SE7       29.99F
COLUMBIA       LGT RAIN  35  30  82 E7        29.94F WCI  29
JEFFERSON CITY LGT RAIN  36  30  79 SE8       29.95F WCI  30
MEXICO         FLURRIES  37  34  87 SE6       29.96  WCI  33
HANNIBAL       FLURRIES  36  34  93 SE7       29.98F WCI  30
ROLLA          LGT RAIN  35  29  78 SE10      29.91F WCI  27
LEBANON        MIX PCPN  36  32  87 S20       29.86F WCI  25
OSAGE BEACH    CLOUDY    36  30  80 SE7       29.90F WCI  30
SPRINGFIELD    LGT RAIN  37  33  85 S22G30    29.85F WCI  26
BRANSON        LGT RAIN  37  32  81 S10G16    29.89F WCI  30
NEVADA         RAIN      37  37 100 S5        29.87F WCI  34
JOPLIN         RAIN      39  38  96 S7        29.86F FOG     WCI  34
WEST PLAINS    CLOUDY    38  24  57 S13       29.96F WCI  30

$$

IAZ060-094-KSZ022-034>040-054-083-096-NEZ052-066-093-010700-
...KANSAS...SOUTHEAST NEBRASKA AND IOWA...

CITY           SKY/WX    TMP DP  RH WIND       PRES   REMARKS
TOPEKA         LGT SNOW  33  32  96 E6        29.83F FOG     WCI  28
6HR MIN TEMP:  33; 6HR MAX TEMP:  37; 6HR PCP:  0.33;

MANHATTAN      LGT RAIN  34  34 100 N3        29.79F FOG
EMPORIA        LGT RAIN  38  38 100 S13       29.80F WCI  30
CHANUTE        LGT RAIN  40  39  97 S10       29.85F FOG     WCI  33
WICHITA        LGT RAIN  41  41 100 S13       29.79F WCI  34
OMAHA          LGT SNOW  33  32  96 CALM      29.87F VSB 3/4
LINCOLN        LGT SNOW  32  31  96 NE7       29.85F VSB 1   WCI  26
FALLS CITY     LGT SNOW  32  32 100 SE7       29.83F VSB 3/4 WCI  26
LAMONI         LGT SNOW  32  32 100 SE12      29.88F VSB 1   WCI  23
DES MOINES     LGT SNOW  33  31  92 E7        29.93F VSB 3/4 WCI  27

$$




USA.gov is the U.S. government's official web portal to all federal, state and local government web resources and services.